ASTRA 3B

Last updated on Tue Sep 16 2025 00:02:46 GMT+0000 (Coordinated Universal Time)

1 36581U 10021A 25258.58925597 .00000120 00000+0 00000+0 0 9990 2 36581 0.7534 87.2939 0003404 71.5526 71.5787 1.00272625 56112
UTC large
Height (km)
Speed (km/s)
/
Latitude / Longitude
Inclination (degrees)
Orbital Period (minutes)
Azimuth
Elevation
Range (km)
Doppler Factor

Next 0 passes for location: London (51.5072 / 0.1276)

Sorry there are no passes over London.